TimeCST,TemperatureF,Dew PointF,Humidity,Sea Level PressureIn,VisibilityMPH,Wind Direction,Wind SpeedMPH,Gust SpeedMPH,PrecipitationIn,Events,Conditions,WindDirDegrees,DateUTC
12:15 AM,38.5,30.0,72,29.96,10.0,SSW,9.2,-,N/A,,Clear,210,2013-12-28 06:15:00
12:35 AM,37.9,30.0,73,29.95,10.0,SSW,10.4,-,N/A,,Clear,210,2013-12-28 06:35:00
12:55 AM,38.5,30.2,72,29.94,10.0,SW,10.4,-,N/A,,Clear,220,2013-12-28 06:55:00
1:15 AM,38.5,30.0,72,29.92,10.0,SW,10.4,-,N/A,,Clear,220,2013-12-28 07:15:00
1:35 AM,38.3,29.8,72,29.91,10.0,SW,9.2,-,N/A,,Clear,220,2013-12-28 07:35:00
1:55 AM,37.4,29.7,74,29.91,10.0,SW,9.2,-,N/A,,Clear,220,2013-12-28 07:55:00
2:15 AM,37.4,29.1,72,29.90,10.0,SSW,6.9,-,N/A,,Clear,210,2013-12-28 08:15:00
2:35 AM,36.3,29.3,76,29.90,10.0,SSW,9.2,-,N/A,,Clear,210,2013-12-28 08:35:00
2:55 AM,37.8,29.1,71,29.89,10.0,SSW,9.2,-,N/A,,Clear,210,2013-12-28 08:55:00
3:15 AM,37.2,28.9,72,29.88,10.0,SSW,9.2,-,N/A,,Clear,210,2013-12-28 09:15:00
3:35 AM,37.2,28.6,71,29.87,10.0,SSW,9.2,-,N/A,,Clear,200,2013-12-28 09:35:00
3:55 AM,36.3,28.4,73,29.86,10.0,SSW,10.4,-,N/A,,Clear,200,2013-12-28 09:55:00
4:15 AM,36.9,28.6,72,29.85,10.0,SSW,8.1,-,N/A,,Clear,200,2013-12-28 10:15:00
4:35 AM,36.9,28.4,71,29.83,10.0,SSW,10.4,-,N/A,,Clear,210,2013-12-28 10:35:00
4:55 AM,39.7,28.2,63,29.82,10.0,SSW,13.8,-,N/A,,Clear,210,2013-12-28 10:55:00
5:15 AM,39.4,28.0,64,29.81,10.0,SSW,12.7,-,N/A,,Clear,210,2013-12-28 11:15:00
5:35 AM,38.7,27.9,65,29.80,10.0,SW,12.7,-,N/A,,Clear,220,2013-12-28 11:35:00
5:55 AM,39.2,27.9,64,29.79,10.0,SSW,15.0,-,N/A,,Clear,210,2013-12-28 11:55:00
6:15 AM,40.3,27.5,60,29.78,10.0,SW,15.0,-,N/A,,Clear,220,2013-12-28 12:15:00
6:35 AM,39.9,27.3,61,29.78,10.0,SSW,12.7,-,N/A,,Clear,210,2013-12-28 12:35:00
6:55 AM,38.3,27.0,64,29.77,10.0,SW,11.5,-,N/A,,Clear,220,2013-12-28 12:55:00
7:15 AM,39.4,27.1,62,29.77,10.0,SW,12.7,-,N/A,,Clear,220,2013-12-28 13:15:00
7:35 AM,40.1,27.0,59,29.76,10.0,SW,12.7,-,N/A,,Clear,220,2013-12-28 13:35:00
7:55 AM,40.5,27.0,59,29.77,10.0,WSW,10.4,-,N/A,,Clear,240,2013-12-28 13:55:00
8:15 AM,40.1,27.0,59,29.76,10.0,SW,8.1,-,N/A,,Clear,230,2013-12-28 14:15:00
8:35 AM,40.5,27.0,59,29.75,10.0,SSW,8.1,-,N/A,,Clear,210,2013-12-28 14:35:00
8:55 AM,41.9,27.5,57,29.76,10.0,SW,8.1,-,N/A,,Clear,230,2013-12-28 14:55:00
9:15 AM,44.8,28.0,52,29.75,10.0,WSW,10.4,-,N/A,,Clear,240,2013-12-28 15:15:00
9:35 AM,46.9,27.5,47,29.76,10.0,West,11.5,-,N/A,,Clear,260,2013-12-28 15:35:00
9:55 AM,46.4,28.4,50,29.76,10.0,West,15.0,-,N/A,,Clear,270,2013-12-28 15:55:00
10:15 AM,46.4,29.1,51,29.77,10.0,West,15.0,-,N/A,,Clear,280,2013-12-28 16:15:00
10:35 AM,47.8,27.7,46,29.78,10.0,West,18.4,24.2,N/A,,Clear,280,2013-12-28 16:35:00
10:55 AM,48.2,28.2,46,29.78,10.0,WNW,18.4,-,N/A,,Clear,290,2013-12-28 16:55:00
11:15 AM,49.3,28.0,44,29.80,10.0,WNW,18.4,26.5,N/A,,Clear,300,2013-12-28 17:15:00
11:35 AM,48.9,27.7,44,29.81,10.0,NW,21.9,27.6,N/A,,Clear,310,2013-12-28 17:35:00
11:55 AM,49.1,29.1,46,29.81,10.0,NW,24.2,29.9,N/A,,Clear,320,2013-12-28 17:55:00
12:15 PM,48.4,29.1,47,29.83,10.0,NNW,29.9,38.0,N/A,,Clear,340,2013-12-28 18:15:00
12:35 PM,48.2,29.8,49,29.83,10.0,NNW,24.2,38.0,N/A,,Clear,340,2013-12-28 18:35:00
12:55 PM,48.6,30.2,49,29.83,10.0,NNW,24.2,29.9,N/A,,Clear,330,2013-12-28 18:55:00
1:15 PM,48.2,28.8,47,29.84,10.0,NNW,29.9,39.1,N/A,,Clear,340,2013-12-28 19:15:00
1:35 PM,47.1,29.7,51,29.85,10.0,NNW,34.5,43.7,N/A,,Clear,340,2013-12-28 19:35:00
1:55 PM,45.5,30.7,56,29.87,10.0,NNW,23.0,41.4,N/A,,Clear,330,2013-12-28 19:55:00
2:15 PM,43.7,30.4,59,29.88,10.0,NNW,32.2,42.6,N/A,,Clear,330,2013-12-28 20:15:00
2:35 PM,42.4,30.9,64,29.90,10.0,NNW,29.9,36.8,N/A,,Clear,330,2013-12-28 20:35:00
2:55 PM,40.3,29.5,65,29.92,10.0,NNW,31.1,39.1,N/A,,Clear,330,2013-12-28 20:55:00
3:15 PM,37.6,28.0,68,29.93,10.0,NNW,31.1,39.1,N/A,,Clear,340,2013-12-28 21:15:00
3:35 PM,36.1,27.7,71,29.96,10.0,NNW,35.7,43.7,N/A,,Mostly Cloudy,330,2013-12-28 21:35:00
3:55 PM,32.0,24.4,74,29.99,10.0,NNW,35.7,43.7,N/A,,Overcast,330,2013-12-28 21:55:00
4:15 PM,29.5,22.5,75,30.01,10.0,NNW,36.8,46.0,N/A,,Overcast,330,2013-12-28 22:15:00
4:35 PM,26.4,19.9,77,30.03,10.0,NNW,38.0,46.0,N/A,,Overcast,340,2013-12-28 22:35:00
4:55 PM,24.8,18.3,76,30.06,10.0,NNW,31.1,40.3,N/A,,Overcast,330,2013-12-28 22:55:00
5:15 PM,22.5,16.0,76,30.08,10.0,NNW,27.6,43.7,N/A,,Overcast,340,2013-12-28 23:15:00
5:35 PM,21.0,14.4,75,30.09,10.0,NNW,34.5,48.3,N/A,,Overcast,340,2013-12-28 23:35:00
5:55 PM,19.4,12.0,73,30.11,10.0,NNW,36.8,44.9,N/A,,Overcast,330,2013-12-28 23:55:00
6:15 PM,18.5,11.7,75,30.13,10.0,NNW,34.5,44.9,N/A,Snow,Light Snow,330,2013-12-29 00:15:00
6:35 PM,17.4,10.6,75,30.14,7.0,NNW,33.4,42.6,N/A,Snow,Light Snow,330,2013-12-29 00:35:00
6:55 PM,16.7,9.9,74,30.15,10.0,NNW,32.2,39.1,N/A,Snow,Light Snow,330,2013-12-29 00:55:00
7:15 PM,14.9,7.5,73,30.17,10.0,NNW,36.8,48.3,N/A,,Overcast,330,2013-12-29 01:15:00
7:35 PM,13.5,5.5,71,30.18,10.0,NNW,34.5,50.6,N/A,,Overcast,330,2013-12-29 01:35:00
7:55 PM,12.7,5.4,72,30.19,10.0,NNW,27.6,43.7,N/A,,Overcast,330,2013-12-29 01:55:00
8:15 PM,11.8,5.0,74,30.21,10.0,NNW,36.8,42.6,N/A,,Overcast,330,2013-12-29 02:15:00
8:35 PM,11.5,3.9,72,30.22,10.0,NNW,34.5,48.3,N/A,,Overcast,340,2013-12-29 02:35:00
8:55 PM,11.5,4.5,73,30.23,10.0,NNW,33.4,38.0,N/A,,Overcast,340,2013-12-29 02:55:00
9:15 PM,11.3,4.5,74,30.24,10.0,NNW,24.2,34.5,N/A,,Overcast,330,2013-12-29 03:15:00
9:35 PM,10.9,3.6,72,30.25,10.0,NNW,28.8,33.4,N/A,,Overcast,330,2013-12-29 03:35:00
9:55 PM,10.4,3.0,72,30.27,10.0,NNW,33.4,41.4,N/A,,Overcast,340,2013-12-29 03:55:00
10:15 PM,10.4,3.2,73,30.27,10.0,NNW,28.8,41.4,N/A,,Overcast,330,2013-12-29 04:15:00
10:35 PM,10.4,3.2,73,30.28,10.0,NNW,33.4,41.4,N/A,,Overcast,340,2013-12-29 04:35:00
10:55 PM,10.2,3.2,73,30.28,10.0,NNW,29.9,38.0,N/A,,Overcast,340,2013-12-29 04:55:00
11:15 PM,10.0,3.2,74,30.29,10.0,North,31.1,38.0,N/A,,Overcast,350,2013-12-29 05:15:00
11:35 PM,8.6,2.1,75,30.30,7.0,NNW,29.9,38.0,N/A,,Overcast,330,2013-12-29 05:35:00
11:55 PM,7.7,1.2,75,30.31,10.0,NNW,33.4,36.8,N/A,,Overcast,340,2013-12-29 05:55:00